Orbital Elements at Epoch 2459000.5 (2020-May-31.0) TDB
Reference: JPL 15 (heliocentric ecliptic J2000)
Element | Value | Uncertainty (1-sigma) | Units |
e | .03854744091789827 | 5.8437e-08 | |
a | 3.159820475490311 | 3.135e-08 | au |
q | 3.038017482400183 | 1.7804e-07 | au |
i | 13.77902981926114 | 5.0961e-06 | deg |
node | 267.4702790332186 | 2.5772e-05 | deg |
peri | 343.9895789008434 | 9.369e-05 | deg |
M | 126.1846450265901 | 9.3801e-05 | deg |
tp | 2458281.388804895838 (2018-Jun-11.88880490) | 0.00053049 | TDB |
period | 2051.596929110876 5.62 | 3.0532e-05 8.359e-08 | d yr |
n | .1754730643684563 | 2.6114e-09 | deg/d |
Q | 3.281623468580439 | 3.2558e-08 | au |
|
| | Orbit Determination Parameters
Additional Information
|